[[{"header":{"parameterUnit":"m.s-1","parameterCategory":1,"la1":30.2991,"la2":30.254,"lo1":-89.0895,"lo2":-89.0444,"dy":0.0017,"dx":0.0017,"nx":28,"ny":28,"refTime":"2025-05-29T09:00:00:Z","depth":0,"parameterNumber":2,"parameterNumberName":"U-component_of_WINDS"},"data":[0,0,0,0,0,0,0,0,0,0,0,0,0,0,0,0,0,0,0,0,0,0,0,0,0,0,0,0,0,0,0,0,0,0,0,0,0,0,0,0,0,0,0,0,0,0,0,0,0,0,0,0,0,0,0,0,0,0,0.9241,0.9244,0,0.9479,0.9482,0.9485,0.9435,0.9431,0.9426,0.9422,0.9687,0.9698,0.9709,0,0,0,0,0,0,0,0,0,0,0,0,0,0.877,0.8779,0.9241,0.9244,0.9247,0.9479,0.9482,0.9485,0.9436,0.9431,0.9425,0.942,0.9684,0.9697,0.971,0,0,0,0,0,0,0,0,0,0,0,0,0,0.8989,0.8782,0.9241,0.925,0.9253,0.9478,0.9482,0.9486,0.9437,0.943,0.9424,0.9418,0.9679,0.9695,0.9712,0.9949,0,0,0.9763,0.9771,0,0,0,0,0,0,0,0,0.8976,0.9006,0.9246,0.925,0.9253,0.942,0.9413,0.9642,0.9439,0.9368,0.9422,0.9414,0.9605,0.9628,0.9688,0.9962,0.9973,0.9765,0.9775,0.9782,0.9787,0,0,0,0,0,0,0,0.8961,0.8996,0.9336,0.9249,0.9254,0.9251,0.9274,0.9456,0.9522,0.9374,0.937,0.9398,0.9606,0.9672,0.9694,0.9977,0.9764,0.9779,0.979,0.9796,1.0473,1.048,0,0,0,0,0,0,0.8939,0.8983,0.9328,0.9343,0.9095,0.9265,0.9291,0.9374,0.9519,0.9535,0.9404,0.9395,0.9646,0.9674,0.9703,0.9999,0.9782,0.9798,0.9808,1.0465,1.0474,1.0483,0,0,0,0,0,0,0.8929,0.897,0.9319,0.9163,0.9206,0.928,0.9373,0.9382,0.9447,0.9542,0.9556,0.9457,0.9642,0.9679,0.989,1.0007,0.9806,0.9821,1.0455,1.0468,1.0479,1.0588,0,0,0,0,0,0,0.8916,0.8967,0.9051,0.9164,0.9215,0.9494,0.938,0.9392,0.9474,0.9465,0.9595,0.9611,0.964,0.9865,0.9907,1.0027,0.9834,1.0445,1.0461,1.0475,1.0574,1.0602,1.0626,0,0,0,0,0,0.8899,0.9074,0.9055,0.9097,0.932,0.95,0.953,0.9553,0.9483,0.9574,0.9636,0.9607,0.9986,0.9887,0.9933,1.006,1.0438,1.0457,1.0474,1.0563,1.0597,1.0625,0,0,0,0,0,0,0.8978,0.9089,0.9069,0.9284,0.9383,0.9491,0.9605,0.9587,0.9713,0.97,0.973,0.9761,0.9978,1.0039,0.9926,1.0305,1.0204,1.0232,1.0256,1.0289,1.0314,1.0298,0.9848,0,0,0,0,0,0.9019,0.9148,0.9242,0.9423,0.9473,0.9531,0.961,0.962,0.9726,0.977,0.9847,0.9958,1.0104,1.0199,1.0337,1.0582,1.0617,1.0694,1.0719,1.074,1.0766,1.0913,1.0951,1.0541,1.0541,1.0541,0,0,0.9108,0.9185,0.9265,0.9441,0.9518,0.9662,0.9567,0.9719,0.9829,0.9795,0.9999,1.0061,1.0188,1.042,1.0526,1.0479,1.0887,1.0763,1.0778,1.0794,1.0935,1.0974,1.1008,1.0553,1.0551,1.0549,0,0,0.9344,0.941,0.9573,0.9653,0.977,0.9809,0.9849,0.9962,1.0001,1.0204,1.0185,1.0321,1.0567,1.0661,1.0742,1.1023,1.1006,1.1068,1.1205,1.1347,1.138,1.1409,1.1519,1.1557,1.1092,1.1092,1.1093,0,0.9442,0.9648,0.9661,0.9818,0.9902,0.9873,1.0045,1.0124,1.0284,1.0347,1.0289,1.0605,1.0687,1.0946,1.1016,1.1078,1.1134,1.1054,1.1372,1.1401,1.1429,1.1535,1.1575,1.11,1.1099,1.1098,1.1097,0,0.9768,0.9912,1.0032,1.0182,1.0278,1.0442,1.0491,1.0588,1.0592,1.064,1.0857,1.0955,1.1117,1.1179,1.1184,1.1443,1.1411,1.1363,1.1263,1.1475,1.1576,1.1616,1.111,1.1108,1.1105,1.1104,0,0,1.0059,1.0217,1.0262,1.0334,1.0465,1.0582,1.075,1.0903,1.0992,1.1105,1.1255,1.1468,1.1426,1.1518,1.1535,1.1659,1.189,1.1598,1.1602,1.1656,1.2195,1.2235,1.2281,1.1877,1.1884,1.189,1.2187,0,1.0313,1.06,1.0622,1.0886,1.1027,1.1006,1.1154,1.1257,1.1308,1.1443,1.1503,1.1657,1.1585,1.1642,1.1763,1.1835,1.2,1.1813,1.2028,1.2035,1.2002,1.2331,1.2373,1.2648,1.2225,1.2232,1.2236,0,1.0647,1.0767,1.1044,1.1163,1.1224,1.1355,1.1504,1.1628,1.1749,1.1779,1.1885,1.1887,1.2073,1.1963,1.2226,1.2099,1.2189,1.2239,1.2251,1.2277,1.2152,1.2375,1.2734,1.2779,1.2297,1.2292,1.2288,0,1.0843,1.1074,1.1272,1.1334,1.1475,1.1571,1.1636,1.1748,1.1843,1.1976,1.204,1.2194,1.2281,1.2406,1.2455,1.2368,1.272,1.2611,1.2761,1.276,1.2839,1.2835,1.3227,1.2885,1.2884,1.2883,1.2883,0,1.1128,1.1301,1.1363,1.1485,1.1683,1.171,1.1908,1.197,1.2072,1.2215,1.2207,1.2344,1.2396,1.2545,1.2585,1.2804,1.2841,1.2879,1.289,1.2884,1.2881,1.2948,1.2933,1.2894,1.2892,1.289,1.2888,0,1.1381,1.1427,1.1644,1.1761,1.1795,1.1937,1.2042,1.2167,1.2217,1.2399,1.2444,1.2527,1.2702,1.2762,1.2975,1.3004,1.3261,1.3251,1.3219,1.3223,1.3372,1.336,1.3826,1.3894,1.35,1.3503,1.3506,0,1.1563,1.1696,1.1827,1.1919,1.1987,1.2135,1.2231,1.2267,1.237,1.2522,1.2632,1.2804,1.2944,1.3227,1.3314,1.348,1.348,1.3632,1.3505,1.3499,1.3494,1.3488,1.3507,1.3657,1.3661,1.3665,1.3667,0,1.1886,1.1904,1.2038,1.2185,1.2299,1.2417,1.2532,1.2611,1.2666,1.2784,1.2959,1.3068,1.3286,1.3463,1.3634,1.3713,1.3706,1.3706,1.3751,1.3751,1.373,1.3753,1.3292,1.3696,1.3693,1.3691,1.369,1.3689,1.2115,1.2236,1.2349,1.2503,1.2593,1.2702,1.2827,1.2894,1.3038,1.3215,1.3229,1.3423,1.3553,1.3781,1.3868,1.4028,1.3987,1.405,1.4067,1.4084,1.41,1.3698,1.4059,1.4058,1.4057,1.4057,1.4056,0,1.2445,1.2517,1.2658,1.2818,1.2943,1.2915,1.3044,1.3154,1.3321,1.3438,1.3576,1.3786,1.3959,1.4059,1.4236,1.4345,1.4347,1.4391,1.4388,1.4409,1.4122,1.4069,1.4388,1.4388,1.4387,1.4387,1.4387,1.4387,1.2631,1.2837,1.287,1.3125,1.3199,1.3383,1.346,1.3566,1.3661,1.3892,1.4033,1.4095,1.4211,1.4397,1.4559,1.4585,1.4655,1.4705,1.4729,1.4461,1.4427,1.4395,1.4346,1.4717,1.4718,1.5004,1.5007,1.5009]},{"header":{"parameterUnit":"m.s-1","parameterCategory":1,"la1":30.2991,"la2":30.254,"lo1":-89.0895,"lo2":-89.0444,"dy":0.0017,"dx":0.0017,"nx":28,"ny":28,"refTime":"2025-05-29T09:00:00:Z","depth":0,"parameterNumber":3,"parameterNumberName":"V-component_of_WINDS"},"data":[0,0,0,0,0,0,0,0,0,0,0,0,0,0,0,0,0,0,0,0,0,0,0,0,0,0,0,0,0,0,0,0,0,0,0,0,0,0,0,0,0,0,0,0,0,0,0,0,0,0,0,0,0,0,0,0,0,0,-7.3232,-7.3235,0,-7.351,-7.3513,-7.3516,-7.3483,-7.3479,-7.3474,-7.347,-7.3748,-7.376,-7.3771,0,0,0,0,0,0,0,0,0,0,0,0,0,-7.2666,-7.2676,-7.3232,-7.3235,-7.3239,-7.3509,-7.3513,-7.3517,-7.3484,-7.3478,-7.3473,-7.3468,-7.3745,-7.3758,-7.3772,0,0,0,0,0,0,0,0,0,0,0,0,0,-7.2924,-7.268,-7.3231,-7.3255,-7.326,-7.3509,-7.3513,-7.3518,-7.3485,-7.3478,-7.3472,-7.3465,-7.374,-7.3757,-7.3774,-7.4015,0,0,-7.3827,-7.3835,0,0,0,0,0,0,0,0,-7.291,-7.2945,-7.3248,-7.3254,-7.326,-7.3455,-7.3416,-7.3685,-7.3487,-7.3399,-7.347,-7.3462,-7.3656,-7.368,-7.3746,-7.4028,-7.404,-7.3829,-7.3839,-7.3847,-7.3852,0,0,0,0,0,0,0,-7.2892,-7.2933,-7.3342,-7.3252,-7.326,-7.325,-7.3279,-7.3467,-7.3561,-7.3406,-7.3405,-7.3438,-7.3658,-7.373,-7.3753,-7.4044,-7.3828,-7.3844,-7.3854,-7.3861,-7.4533,-7.454,0,0,0,0,0,0,-7.2869,-7.2918,-7.3333,-7.335,-7.3065,-7.3265,-7.3298,-7.3399,-7.3559,-7.3578,-7.3444,-7.3436,-7.3703,-7.3732,-7.3762,-7.4051,-7.3846,-7.3863,-7.3873,-7.4525,-7.4534,-7.4542,0,0,0,0,0,0,-7.2857,-7.2906,-7.3322,-7.3134,-7.3186,-7.3282,-7.3396,-7.3408,-7.348,-7.3588,-7.3604,-7.35,-7.3699,-7.3738,-7.3952,-7.406,-7.3871,-7.3886,-7.4517,-7.4528,-7.4538,-7.4633,0,0,0,0,0,0,-7.2841,-7.2902,-7.2996,-7.3136,-7.3196,-7.3509,-7.3403,-7.3418,-7.3511,-7.3503,-7.3645,-7.3662,-7.3697,-7.3926,-7.3969,-7.4081,-7.39,-7.4507,-7.4522,-7.4535,-7.462,-7.4646,-7.4668,0,0,0,0,0,-7.2821,-7.3011,-7.3001,-7.3051,-7.3316,-7.3515,-7.3549,-7.3587,-7.352,-7.3614,-7.3683,-7.3658,-7.4043,-7.3948,-7.3997,-7.4115,-7.45,-7.4518,-7.4534,-7.461,-7.4641,-7.4667,0,0,0,0,0,0,-7.288,-7.303,-7.302,-7.3263,-7.3377,-7.3509,-7.3629,-7.362,-7.3754,-7.374,-7.378,-7.3812,-7.4028,-7.4093,-7.3986,-7.4354,-7.4262,-7.4289,-7.4303,-7.4334,-7.4357,-7.4334,-7.3914,0,0,0,0,0,-7.2922,-7.3073,-7.3195,-7.3397,-7.3455,-7.3533,-7.3621,-7.364,-7.3759,-7.3806,-7.3891,-7.4005,-7.4151,-7.4247,-7.4388,-7.4631,-7.4659,-7.4736,-7.476,-7.4779,-7.48,-7.4929,-7.4963,-7.4597,-7.4597,-7.4597,0,0,-7.3008,-7.3109,-7.3202,-7.3411,-7.3502,-7.3655,-7.3573,-7.3739,-7.3852,-7.3831,-7.4037,-7.4104,-7.4234,-7.4462,-7.4567,-7.4523,-7.4908,-7.48,-7.4814,-7.4826,-7.4949,-7.4984,-7.5014,-7.4609,-7.4607,-7.4605,0,0,-7.3243,-7.3337,-7.3513,-7.3606,-7.3745,-7.3795,-7.3837,-7.3972,-7.4015,-7.4224,-7.4211,-7.4344,-7.4597,-7.4689,-7.4768,-7.5038,-7.5017,-7.5083,-7.5204,-7.5329,-7.5358,-7.5383,-7.5474,-7.5507,-7.5105,-7.5105,-7.5105,0,-7.3332,-7.3564,-7.3604,-7.3772,-7.3863,-7.3854,-7.403,-7.4118,-7.4295,-7.4356,-7.4306,-7.462,-7.4708,-7.4955,-7.5021,-7.5088,-7.5133,-7.5064,-7.5351,-7.5377,-7.5402,-7.5489,-7.5523,-7.5112,-7.5111,-7.511,-7.511,0,-7.3664,-7.3825,-7.3951,-7.4123,-7.4229,-7.44,-7.4464,-7.4566,-7.4576,-7.4631,-7.4841,-7.4946,-7.5106,-7.5167,-7.5179,-7.5416,-7.5383,-7.5343,-7.5249,-7.5442,-7.5524,-7.5559,-7.5121,-7.5119,-7.5117,-7.5115,0,0,-7.3941,-7.4134,-7.4179,-7.4256,-7.4408,-7.4532,-7.4702,-7.486,-7.4944,-7.5067,-7.5207,-7.5421,-7.5383,-7.5473,-7.5496,-7.5606,-7.5806,-7.5551,-7.5554,-7.559,-7.6068,-7.6094,-7.6132,-7.5796,-7.5803,-7.5808,-7.6055,0,-7.4187,-7.4489,-7.453,-7.4796,-7.4943,-7.4936,-7.5084,-7.5191,-7.5247,-7.5378,-7.5438,-7.5587,-7.5529,-7.5583,-7.5692,-7.5759,-7.5902,-7.5742,-7.5922,-7.5928,-7.5884,-7.6176,-7.6206,-7.6433,-7.6088,-7.6093,-7.6098,0,-7.4513,-7.4646,-7.4927,-7.5057,-7.512,-7.5252,-7.5398,-7.5525,-7.5646,-7.5679,-7.578,-7.5788,-7.596,-7.5863,-7.6097,-7.5988,-7.6064,-7.6108,-7.6118,-7.6131,-7.602,-7.6193,-7.6508,-7.6539,-7.615,-7.6145,-7.6142,0,-7.468,-7.493,-7.5129,-7.5195,-7.5354,-7.5446,-7.5515,-7.563,-7.5722,-7.585,-7.5909,-7.6055,-7.6134,-7.6245,-7.629,-7.6217,-7.6521,-7.6429,-7.6548,-7.6547,-7.6608,-7.6603,-7.6934,-7.6667,-7.6666,-7.6665,-7.6665,0,-7.4947,-7.5118,-7.5206,-7.5327,-7.5517,-7.5563,-7.5749,-7.5815,-7.5917,-7.6049,-7.6054,-7.6177,-7.6232,-7.6363,-7.64,-7.6586,-7.6623,-7.665,-7.6657,-7.6647,-7.6643,-7.6693,-7.6677,-7.6675,-7.6673,-7.6671,-7.6669,0,-7.5164,-7.523,-7.5446,-7.5579,-7.5616,-7.575,-7.5862,-7.5978,-7.6034,-7.62,-7.6242,-7.6328,-7.6482,-7.654,-7.6728,-7.6752,-7.6965,-7.6962,-7.6924,-7.6925,-7.7038,-7.7025,-7.741,-7.746,-7.7164,-7.7167,-7.717,0,-7.5327,-7.5458,-7.5605,-7.5695,-7.5768,-7.5914,-7.6007,-7.6057,-7.6154,-7.6301,-7.6399,-7.6553,-7.6679,-7.6925,-7.7001,-7.7144,-7.714,-7.7266,-7.7161,-7.7146,-7.7135,-7.7124,-7.7135,-7.7283,-7.7286,-7.7288,-7.729,0,-7.5608,-7.5634,-7.577,-7.5918,-7.6031,-7.6149,-7.6264,-7.6336,-7.6403,-7.6511,-7.667,-7.6768,-7.696,-7.7111,-7.7257,-7.7325,-7.7317,-7.7323,-7.7357,-7.7345,-7.7316,-7.7328,-7.6971,-7.7313,-7.7311,-7.7309,-7.7308,-7.7307,-7.5799,-7.5914,-7.6035,-7.6186,-7.6278,-7.6385,-7.65,-7.657,-7.6704,-7.6866,-7.6887,-7.7056,-7.7171,-7.7367,-7.7442,-7.7572,-7.7538,-7.7589,-7.76,-7.761,-7.7616,-7.73,-7.7599,-7.7599,-7.7598,-7.7598,-7.7598,0,-7.6074,-7.6153,-7.6292,-7.6452,-7.657,-7.6558,-7.6684,-7.6782,-7.6931,-7.7041,-7.7165,-7.7345,-7.7491,-7.7581,-7.7727,-7.7813,-7.7813,-7.7849,-7.784,-7.7855,-7.7641,-7.7594,-7.7847,-7.7847,-7.7847,-7.7847,-7.7847,-7.7847,-7.6231,-7.6424,-7.6465,-7.6701,-7.6778,-7.6945,-7.7017,-7.7115,-7.7202,-7.7404,-7.7527,-7.7585,-7.7685,-7.7838,-7.797,-7.7992,-7.8043,-7.8082,-7.81,-7.7897,-7.7871,-7.7846,-7.7802,-7.8094,-7.8094,-7.8302,-7.8304,-7.8306]}]]